Location: ???????
(54.6339°N, 39.4245°E)
Time: 02:43:41
(UTC+00:00)

Meteor 2-10 Rocket - Pass Details

Date: 19 May 2025
Orbit: 733 x 881 km, 81.2° (Epoch: 13 June)

Event Time Altitude Azimuth Distance (km) Brightness Sun altitude
Rises 21:17:46 0° 346° (NNW) 3,430 8.5 -15.4°
Reaches altitude 10° 21:20:12 10° 348° (NNW) 2,507 7.5 -15.4°
Maximum altitude 21:25:56 76° 74° (ENE) 907 3.9 -15.4°
Enters shadow 21:30:03 20° 158° (SSE) 1,913 5.0 -15.4°
